Le nostre stazioni meteo in Italia

Pubblicità
Il mio iltempo24.it
Achnagart, Gran Bretagna (99191): Temperatura & dewpoint: 14.02.2017 15:00:00 - 20.02.2017 15:00:00 (GMT)Achnagart, Gran Bretagna (99191): precipitazioni: 14.02.2017 15:00:00 - 20.02.2017 15:00:00 (GMT)
Data & Tempo tt [°C] td [°C] rr [mm]
20.02.2017 15:00:00 8,3 6,1 1,6
20.02.2017 14:00:00 10,0 4,8 0,0
20.02.2017 13:00:00 9,7 5,8 0,2
20.02.2017 12:00:00 10,2 6,5 0,0
20.02.2017 11:00:00 9,7 8,2 0,0
20.02.2017 10:00:00 10,1 9,1 1,6
20.02.2017 09:00:00 10,2 9,8 1,6
20.02.2017 08:00:00 11,5 9,5 2,6
20.02.2017 07:00:00 11,8 9,5 6,6
20.02.2017 06:00:00 12,3 9,5 1,4
20.02.2017 05:00:00 12,8 9,4 0,2
20.02.2017 04:00:00 10,7 9,4 0,0
20.02.2017 03:00:00 12,3 8,3 0,0
20.02.2017 02:00:00 12,2 7,6 0,0
20.02.2017 01:00:00 11,0 8,4 0,0
20.02.2017 00:00:00 11,2 8,8 0,0
19.02.2017 23:00:00 11,2 9,4 0,0
19.02.2017 22:00:00 12,4 10,1 0,0
19.02.2017 21:00:00 12,3 10,2 0,0
19.02.2017 20:00:00 12,2 9,9 0,0
19.02.2017 19:00:00 12,1 10,4 0,0
19.02.2017 18:00:00 11,3 10,2 0,4
19.02.2017 17:00:00 11,3 8,6 0,0
19.02.2017 16:00:00 11,1 8,4 0,0
19.02.2017 15:00:00 11,1 8,4 0,0
19.02.2017 14:00:00 11,0 8,1 0,0
19.02.2017 13:00:00 11,2 8,0 0,0
19.02.2017 12:00:00 10,5 8,7 0,0
19.02.2017 11:00:00 8,9 8,5 0,0
19.02.2017 10:00:00 8,4 7,9 0,0
19.02.2017 09:00:00 8,2 7,1 0,0
19.02.2017 08:00:00 8,2 6,3 0,0
19.02.2017 07:00:00 7,9 6,2 0,0
19.02.2017 06:00:00 7,2 5,8 0,0
19.02.2017 05:00:00 7,3 6,7 0,0
19.02.2017 04:00:00 7,4 6,6 0,0
19.02.2017 03:00:00 7,7 6,4 0,2
19.02.2017 02:00:00 7,8 6,9 0,4
19.02.2017 01:00:00 8,0 6,8 0,6
19.02.2017 00:00:00 8,2 7,4 1,2
18.02.2017 23:00:00 9,1 6,9 0,4
18.02.2017 22:00:00 8,9 6,7 0,6
18.02.2017 21:00:00 8,3 6,0 1,0
18.02.2017 20:00:00 8,5 5,7 1,0
18.02.2017 19:00:00 8,5 6,3 2,8
18.02.2017 18:00:00 9,0 5,8 2,6
18.02.2017 17:00:00 9,4 6,3 1,4
18.02.2017 16:00:00 10,1 6,7 0,6
18.02.2017 15:00:00 9,6 7,3 1,6
18.02.2017 14:00:00 10,2 6,7 1,0
18.02.2017 13:00:00 10,0 7,6 0,8
18.02.2017 12:00:00 10,1 6,9 0,2
18.02.2017 11:00:00 10,7 7,0 0,0
18.02.2017 10:00:00 10,7 8,0 0,8
18.02.2017 09:00:00 10,7 9,0 1,2
18.02.2017 08:00:00 10,1 9,0 2,0
18.02.2017 07:00:00 11,2 8,5 2,2
18.02.2017 06:00:00 10,1 8,8 2,4
18.02.2017 05:00:00 10,6 8,6 1,2
18.02.2017 04:00:00 11,3 8,0 0,0
18.02.2017 03:00:00 11,5 7,5 0,0
18.02.2017 02:00:00 11,4 7,5 0,0
18.02.2017 01:00:00 11,7 7,5 0,0
18.02.2017 00:00:00 11,1 7,6 0,0
17.02.2017 23:00:00 11,5 7,3 0,0
17.02.2017 22:00:00 11,0 7,2 0,0
17.02.2017 21:00:00 11,0 7,0 0,0
17.02.2017 20:00:00 11,2 6,6 0,0
17.02.2017 19:00:00 11,3 6,2 0,0
17.02.2017 18:00:00 11,1 5,4 0,0
17.02.2017 17:00:00 11,1 5,2 0,0
17.02.2017 16:00:00 11,2 4,9 0,0
17.02.2017 15:00:00 11,3 5,7 0,0
17.02.2017 14:00:00 11,3 6,4 0,0
17.02.2017 13:00:00 11,6 6,4 0,0
17.02.2017 12:00:00 11,0 6,6 0,0
17.02.2017 11:00:00 9,9 5,8 0,0
17.02.2017 10:00:00 7,9 4,6 0,0
17.02.2017 09:00:00 6,9 4,0 0,0
17.02.2017 08:00:00 6,7 3,7 0,0
17.02.2017 07:00:00 5,8 3,3 0,0
17.02.2017 06:00:00 6,4 3,9 0,0
17.02.2017 05:00:00 4,6 4,0 0,0
17.02.2017 04:00:00 2,7 2,4 0,0
17.02.2017 03:00:00 2,4 2,0 0,0
17.02.2017 02:00:00 4,5 4,1 0,0
17.02.2017 01:00:00 4,7 4,5 0,0
17.02.2017 00:00:00 5,0 4,7 0,0
16.02.2017 23:00:00 4,6 4,3 0,0
16.02.2017 22:00:00 5,5 5,0 0,0
16.02.2017 21:00:00 6,6 5,9 0,0
16.02.2017 20:00:00 7,6 6,2 0,0
16.02.2017 19:00:00 8,3 6,7 0,0
16.02.2017 18:00:00 8,4 6,6 0,0
16.02.2017 17:00:00 9,1 6,6 0,0
16.02.2017 16:00:00 9,4 7,0 0,0
16.02.2017 15:00:00 9,3 6,9 0,0
16.02.2017 14:00:00 9,4 6,7 0,0
16.02.2017 13:00:00 9,4 7,4 1,0
16.02.2017 12:00:00 9,0 7,7 1,6
16.02.2017 11:00:00 9,7 6,8 1,0
16.02.2017 10:00:00 9,2 7,0 1,0
16.02.2017 09:00:00 9,3 6,8 0,6
16.02.2017 08:00:00 8,3 6,7 4,2
16.02.2017 07:00:00 - - 6,0
16.02.2017 06:00:00 9,4 6,4 3,6
16.02.2017 05:00:00 9,3 6,1 4,4
16.02.2017 04:00:00 9,7 6,2 2,0
16.02.2017 03:00:00 9,2 7,1 1,4
16.02.2017 02:00:00 8,1 7,2 0,4
16.02.2017 01:00:00 8,3 7,0 0,6
16.02.2017 00:00:00 9,6 6,3 0,4
15.02.2017 23:00:00 9,6 6,8 0,6
15.02.2017 22:00:00 8,3 6,8 2,0
15.02.2017 21:00:00 8,9 6,2 0,6
15.02.2017 20:00:00 9,1 5,7 0,4
15.02.2017 19:00:00 9,4 5,3 0,0
15.02.2017 18:00:00 8,6 6,0 0,2
15.02.2017 17:00:00 8,2 6,1 0,6
15.02.2017 16:00:00 10,5 3,9 0,0
15.02.2017 15:00:00 11,3 3,7 0,0
15.02.2017 14:00:00 11,3 3,5 0,0
15.02.2017 13:00:00 11,0 3,2 0,0
15.02.2017 12:00:00 10,6 2,7 0,0
15.02.2017 11:00:00 9,1 2,3 0,0
15.02.2017 10:00:00 8,6 2,4 0,0
15.02.2017 09:00:00 8,0 2,9 0,0
15.02.2017 08:00:00 8,5 3,3 0,0
15.02.2017 07:00:00 8,8 4,2 0,0
15.02.2017 06:00:00 8,2 4,4 0,0
15.02.2017 05:00:00 8,2 4,1 0,0
15.02.2017 04:00:00 8,8 4,2 0,0
15.02.2017 03:00:00 8,4 3,8 0,0
15.02.2017 02:00:00 9,0 3,4 0,0
15.02.2017 01:00:00 8,1 2,1 0,0
15.02.2017 00:00:00 7,9 1,6 0,0
14.02.2017 23:00:00 7,1 0,8 0,0
14.02.2017 22:00:00 7,7 0,7 0,0
14.02.2017 21:00:00 7,1 0,4 0,0
14.02.2017 20:00:00 7,2 0,3 0,0
14.02.2017 19:00:00 7,7 0,3 0,0
14.02.2017 18:00:00 7,9 -0,3 0,0
14.02.2017 17:00:00 8,5 -0,3 0,0
14.02.2017 16:00:00 8,9 -0,6 0,0
14.02.2017 15:00:00 9,6 -1,0 0,0

tt = Temperatura
td = dewpoint
rr = precipitazioni

Stazioni seguenti

WeatherPro
AMSI
MeteoEarth